Voltar ao catálogo

STARLINK-5880

AtivoComunicaçõesVLEO
NORAD 57220·PAYLOAD·🇺🇸 United States

Lançado Jul 7, 2023 de Vandenberg Space Force Base

Loading…

Próximas Passagens (próximas 24 horas)

TLE

AtualizadoSource: CelesTrak SupGP

Época: Sep 15, 2026, 01:02 UTC

1 57220C 23094C   26258.04354167 -.00032760  00000+0 -11865-2 0  2587
2 57220  43.0018  44.7737 0001360 266.2042 127.1806 15.27597328    13

Acompanhe STARLINK-5880 em tempo real com AllMySat

Download on the App Store